Precipitable_Water
1.00 1.05 0.97 0.84 0.80 0.71 0.59 0.59 0.62 0.63 0.64 0.64 0.64 0.64 0.63 0.60 0.58 0.54 0.45 0.39 0.35 0.34
1.09 0.99 0.87 0.82 0.77 0.63 0.61 0.61 0.62 0.63 0.63 0.63 0.63 0.62 0.62 0.58 0.56 0.51 0.43 0.38 0.37 0.36
1.05 0.93 0.85 0.79 0.68 0.62 0.61 0.61 0.62 0.62 0.63 0.63 0.63 0.63 0.62 0.59 0.55 0.47 0.42 0.38 0.36 0.34
0.95 0.85 0.80 0.73 0.63 0.62 0.62 0.62 0.62 0.62 0.63 0.63 0.64 0.63 0.61 0.57 0.51 0.45 0.40 0.36 0.34 0.32
0.91 0.81 0.73 0.64 0.61 0.62 0.62 0.62 0.63 0.63 0.63 0.65 0.64 0.62 0.58 0.52 0.47 0.41 0.35 0.34 0.32 0.30
0.79 0.75 0.66 0.60 0.61 0.62 0.62 0.63 0.64 0.64 0.65 0.64 0.63 0.59 0.54 0.48 0.43 0.37 0.35 0.33 0.30 0.26
0.75 0.68 0.61 0.61 0.61 0.62 0.63 0.63 0.64 0.66 0.65 0.63 0.60 0.56 0.48 0.45 0.38 0.35 0.33 0.30 0.28 0.26
0.70 0.65 0.62 0.62 0.63 0.64 0.64 0.63 0.65 0.65 0.63 0.62 0.57 0.47 0.45 0.38 0.35 0.32 0.30 0.28 0.27 0.26
0.64 0.69 0.64 0.63 0.63 0.64 0.63 0.64 0.65 0.63 0.63 0.57 0.46 0.43 0.37 0.35 0.31 0.30 0.27 0.26 0.26 0.26
0.69 0.64 0.63 0.62 0.62 0.63 0.63 0.65 0.64 0.62 0.54 0.44 0.39 0.34 0.33 0.31 0.29 0.28 0.27 0.26 0.25 0.24
0.63 0.60 0.61 0.62 0.62 0.64 0.66 0.65 0.61 0.49 0.43 0.36 0.31 0.30 0.30 0.28 0.28 0.28 0.27 0.26 0.24 0.23
0.61 0.61 0.62 0.63 0.66 0.67 0.65 0.55 0.46 0.40 0.32 0.30 0.29 0.28 0.26 0.28 0.27 0.26 0.25 0.24 0.23 0.22
0.63 0.64 0.65 0.69 0.66 0.59 0.50 0.43 0.32 0.31 0.30 0.29 0.25 0.25 0.27 0.27 0.25 0.23 0.21 0.21 0.22 0.22
0.67 0.68 0.64 0.60 0.54 0.45 0.34 0.30 0.30 0.29 0.28 0.26 0.25 0.25 0.25 0.25 0.23 0.21 0.20 0.20 0.19 0.19
Wind_Speed
25 24 24 24 23 22 21 20 20 20 20 21 22 24 26 28 30 31 32 33 34 35
25 24 23 23 22 22 21 20 20 20 21 22 24 26 28 30 31 33 34 35 36 38
25 24 23 22 22 21 20 20 21 21 23 24 26 28 30 32 33 35 35 37 38 41
25 24 23 22 21 21 20 21 21 22 24 26 28 30 32 33 35 36 37 39 41 42
25 24 23 22 21 21 20 21 22 23 25 27 29 31 33 35 36 38 39 40 42 43
25 24 23 22 21 21 21 21 23 24 26 29 31 33 34 36 38 39 40 41 42 43
24 23 22 22 21 21 21 22 24 26 28 30 32 34 36 38 39 40 41 42 43 45
23 22 22 21 21 21 22 23 25 27 29 31 33 35 37 38 40 41 42 43 44 46
21 21 21 21 21 22 23 24 26 28 30 32 34 36 37 39 40 41 42 44 46 48
20 20 20 20 21 22 23 25 27 29 31 33 35 36 38 39 40 42 43 45 47 49
19 19 19 19 20 22 24 26 28 30 32 33 35 37 38 40 41 43 44 46 48 50
17 17 18 19 21 23 24 26 28 30 31 33 35 37 38 40 42 43 45 47 48 50
15 16 17 19 20 22 24 26 28 30 32 34 35 37 39 41 42 44 46 48 49 51
14 15 16 18 20 22 24 26 28 31 32 34 35 37 40 41 43 45 47 49 51 51
Wind_Direction
227 226 226 227 227 231 236 242 249 259 268 276 283 289 294 297 300 301 301 301 300 300
222 223 224 225 227 232 238 245 253 262 271 278 285 290 295 298 300 302 302 302 301 302
220 222 223 225 228 233 240 248 257 266 274 281 287 292 296 298 301 302 302 303 303 303
219 221 223 227 230 237 245 253 262 270 277 283 288 293 296 299 301 302 303 303 304 304
217 220 224 228 234 241 250 259 267 274 280 286 291 295 298 300 302 303 303 304 304 305
217 221 225 231 238 246 255 264 271 277 284 289 293 296 299 301 303 304 304 304 305 305
218 222 228 235 242 251 260 268 274 281 287 291 295 298 301 303 304 304 305 305 305 306
221 225 231 239 247 255 264 272 278 285 290 294 297 300 302 304 305 305 306 306 306 307
223 226 236 244 252 260 268 275 282 288 293 296 299 302 303 305 306 306 306 307 308 308
225 233 241 248 256 264 272 280 286 291 295 298 301 303 305 306 307 307 308 308 309 309
230 237 243 252 260 270 277 284 290 294 297 300 302 305 307 308 308 308 309 310 310 311
232 239 248 258 268 277 283 288 292 296 300 302 304 306 308 310 310 310 311 312 312 312
236 247 259 269 275 281 287 292 296 299 302 304 306 308 310 312 312 312 312 313 313 314
249 259 267 274 281 287 291 296 299 302 304 306 308 310 312 313 313 314 314 315 315 315